Home   Weather   Karlsruhe   Past weeks

Flag for Germany Past Weather in Karlsruhe, Baden-Württemberg, Germany — Yesterday and Last 2 Weeks

Now
50 °F

Clear.


Feels Like: 49 °F
Forecast: 42 / 55 °F
Wind: 3 mph from South

Location: Karlsruhe - Baden Wurttemberg

Current Time: Apr 25, 2017 at 1:25:01 am

Latest Report: Apr 24, 2017 at 10:50 pm


Visibility: 10 mi

Pressure: 29.80 "Hg

Humidity: 62%

Dew Point: 37 °F

Location of KarlsruheLocation

Past Weather in Karlsruhe — Graph

°F

Karlsruhe Temperature Yesterday

Maximum temperature yesterday: 64 °F (at 4:20 pm)
Minimum temperature yesterday: 32 °F (at 6:20 am)
Average temperature yesterday: 52 °F

High & Low Weather Summary for the Past Weeks

 TemperatureHumidityPressure
High77 °F (Apr 10, 2:20 pm)100% (Apr 16, 5:50 am)30.60 "Hg (Apr 16, 5:50 am)
Low27 °F (Apr 20, 5:50 am)25% (Apr 21, 3:20 pm)29.80 "Hg (Apr 24, 8:20 pm)
Average50 °F64%30.19 "Hg
* Reported Apr 9 10:20 pm — Apr 24 10:50 pm, Karlsruhe, Weather by CustomWeather, © 2017

Note: Actual official high and low records may vary slightly from our data, if they occured in-between our weather recording intervals... More about our weather records

Advertising

Karlsruhe Weather History for the Previous 24 Hours

Scroll right to see more
 ConditionsComfort  
Time TempWeatherWind HumidityBarometerVisibility
10:50 pm
Mon, Apr 24
50 °FClear.3 mph62%29.80 "Hg10 mi
9:50 pm54 °FClear.3 mph54%29.80 "Hg10 mi
9:20 pm55 °FClear.1 mph51%29.80 "Hg10 mi
8:50 pm57 °FClear.No wind44%29.80 "Hg10 mi
8:20 pm61 °FSunny.No wind39%29.80 "Hg10 mi
7:50 pm63 °FSunny.2 mph34%29.83 "Hg10 mi
7:20 pm63 °FSunny.5 mph37%29.83 "Hg10 mi
6:50 pm64 °FSunny.6 mph32%29.83 "Hg10 mi
6:20 pm64 °FPassing clouds.5 mph32%29.86 "HgN/A
5:50 pm64 °FPassing clouds.8 mph30%29.86 "HgN/A
5:20 pm64 °FPassing clouds.7 mph32%29.89 "HgN/A
4:50 pm64 °FPassing clouds.7 mph30%29.89 "HgN/A
4:20 pm64 °FPassing clouds.6 mph28%29.92 "HgN/A
3:50 pm63 °FPassing clouds.8 mph32%29.92 "HgN/A
3:20 pm63 °FPassing clouds.7 mph30%29.95 "HgN/A
2:50 pm63 °FPassing clouds.6 mph30%29.95 "HgN/A
2:20 pm61 °FPassing clouds.6 mph34%29.98 "HgN/A
1:50 pm59 °FSunny.5 mph36%29.98 "Hg10 mi
1:20 pm59 °FPassing clouds.6 mph36%30.01 "HgN/A
12:50 pm57 °FSunny.5 mph41%30.04 "Hg10 mi
12:20 pm55 °FSunny.5 mph44%30.04 "Hg10 mi
11:50 am54 °FPassing clouds.5 mph44%30.07 "HgN/A
11:20 am52 °FSunny.2 mph47%30.07 "Hg10 mi
10:50 am50 °FSunny.3 mph47%30.07 "Hg10 mi
10:20 am48 °FSunny.3 mph58%30.07 "Hg10 mi
9:50 am46 °FSunny.2 mph62%30.09 "Hg10 mi
9:20 am45 °FSunny.2 mph66%30.09 "Hg10 mi
8:50 am43 °FSunny.No wind71%30.09 "Hg10 mi
8:20 am41 °FSunny.No wind76%30.09 "Hg10 mi
7:50 am39 °FSunny.1 mph75%30.09 "Hg10 mi
7:20 am34 °FSunny.1 mph87%30.09 "Hg10 mi
6:50 am32 °FSunny.No wind93%30.09 "Hg10 mi
6:20 am32 °FSunny.1 mph93%30.12 "Hg10 mi
5:50 am34 °FClear.5 mph87%30.12 "Hg10 mi
5:20 am34 °FClear.3 mph93%30.12 "Hg10 mi
4:50 am36 °FClear.5 mph81%30.12 "Hg10 mi
1:20 am37 °FClear.5 mph75%30.18 "Hg10 mi
Weather by CustomWeather, © 2017

See weather overviewHow to use our weather pages